User: anonymous   Login
Location: Unspecified
(0.0000°N, 0.0000°E)
Time: 17:02:20
(UTC+00:00)
Language:

RASAT - Orbit

View from above orbital plane
View from above orbital plane
View from above satellite
View from above satellite

Ground track
Ground track

The orbit data is extracted from the following two-line orbital elements,

1 37791U 11044D   17265.34703379  .00000044  00000-0  17337-4 0  9997
2 37791  98.1352 356.1558 0022059 171.7118 188.4451 14.64620832325999
Epoch (UTC): 22 September 2017 08:19:43
Eccentricity: 0.0022059
inclination: 98.1352°
perigee height: 663 km
apogee height: 694 km
right ascension of ascending node: 356.1558°
argument of perigee: 171.7118°
revolutions per day: 14.64620832
mean anomaly at epoch: 188.4451°
orbit number at epoch: 32599

The dashed part of the orbit path shows where the satellite is in the earth's shadow,  

DLR